• En España
  • Lista de países
  • Para 7 días
  • Temperatura del agua
  • Mapa Satelital
  • El tiempo en el mapa
  • Informadores
  • user-avatar
    Iniciar sesión

    Tiempo cada hora Golden Sands

    Hoy, 25 Septiembre, Martes

    Tiempo Temperatura Precipitaciones Viento Presión Humedad
    00:00 +14°C° 0.3 mm 11 mps 763 mmHg 69%
    01:00 +13°C° 0.3 mm 11 mps 764 mmHg 70%
    02:00 +12°C° 0.3 mm 10 mps 764 mmHg 72%
    03:00 +12°C° 0.2 mm 9 mps 765 mmHg 70%
    04:00 +12°C° 0.2 mm 8 mps 765 mmHg 69%
    05:00 +12°C° 0.2 mm 8 mps 766 mmHg 67%
    06:00 +12°C° 0.1 mm 7 mps 766 mmHg 66%
    07:00 +13°C° 0.1 mm 6 mps 767 mmHg 65%
    08:00 +13°C° 0.1 mm 6 mps 767 mmHg 64%
    09:00 +14°C° 0 mm 6 mps 767 mmHg 59%
    10:00 +15°C° 0 mm 6 mps 768 mmHg 53%
    11:00 +16°C° 0 mm 6 mps 768 mmHg 48%
    12:00 +16°C° 0 mm 6 mps 768 mmHg 45%
    13:00 +16°C° 0 mm 7 mps 768 mmHg 42%
    14:00 +16°C° 0 mm 7 mps 768 mmHg 39%
    15:00 +16°C° 0 mm 7 mps 768 mmHg 38%
    16:00 +16°C° 0 mm 7 mps 768 mmHg 37%
    17:00 +16°C° 0 mm 6 mps 768 mmHg 36%
    18:00 +15°C° 0 mm 6 mps 769 mmHg 38%
    19:00 +14°C° 0 mm 6 mps 770 mmHg 40%
    20:00 +13°C° 0 mm 6 mps 770 mmHg 42%
    21:00 +12°C° 0 mm 7 mps 771 mmHg 43%
    22:00 +12°C° 0 mm 7 mps 771 mmHg 43%
    23:00 +11°C° 0 mm 8 mps 771 mmHg 44%

    Mañana, 26 Septiembre, Miércoles

    Tiempo Temperatura Precipitaciones Viento Presión Humedad
    00:00 +11°C° 0 mm 8 mps 771 mmHg 46%
    01:00 +10°C° 0 mm 9 mps 772 mmHg 48%
    02:00 +10°C° 0 mm 9 mps 772 mmHg 50%
    03:00 +10°C° 0 mm 9 mps 772 mmHg 52%
    04:00 +8°C° 0 mm 9 mps 772 mmHg 55%
    05:00 +8°C° 0 mm 10 mps 772 mmHg 58%
    06:00 +8°C° 0 mm 10 mps 772 mmHg 56%
    07:00 +9°C° 0 mm 10 mps 773 mmHg 55%
    08:00 +9°C° 0 mm 11 mps 773 mmHg 54%
    09:00 +12°C° 0 mm 11 mps 773 mmHg 50%
    10:00 +13°C° 0 mm 11 mps 773 mmHg 45%
    11:00 +14°C° 0 mm 11 mps 773 mmHg 41%
    12:00 +16°C° 0 mm 11 mps 773 mmHg 39%
    13:00 +16°C° 0 mm 11 mps 773 mmHg 37%
    14:00 +16°C° 0 mm 11 mps 772 mmHg 36%
    15:00 +16°C° 0 mm 10 mps 772 mmHg 35%
    16:00 +16°C° 0 mm 10 mps 772 mmHg 35%
    17:00 +14°C° 0 mm 10 mps 772 mmHg 35%
    18:00 +13°C° 0 mm 10 mps 772 mmHg 37%
    19:00 +12°C° 0 mm 10 mps 773 mmHg 39%
    20:00 +12°C° 0 mm 10 mps 773 mmHg 41%
    21:00 +11°C° 0 mm 10 mps 773 mmHg 42%
    22:00 +11°C° 0 mm 10 mps 773 mmHg 43%
    23:00 +9°C° 0 mm 10 mps 773 mmHg 44%

    Pasado mañana, 27 Septiembre, Jueves

    Tiempo Temperatura Precipitaciones Viento Presión Humedad
    00:00 +9°C° 0 mm 10 mps 773 mmHg 45%
    01:00 +8°C° 0 mm 9 mps 773 mmHg 45%
    02:00 +8°C° 0 mm 9 mps 772 mmHg 46%
    03:00 +8°C° 0 mm 9 mps 772 mmHg 47%
    04:00 +7°C° 0 mm 9 mps 772 mmHg 48%
    05:00 +7°C° 0 mm 9 mps 771 mmHg 49%
    06:00 +7°C° 0.1 mm 10 mps 771 mmHg 47%
    07:00 +8°C° 0.1 mm 10 mps 771 mmHg 46%
    08:00 +9°C° 0.1 mm 10 mps 771 mmHg 44%
    09:00 +11°C° 0.1 mm 9 mps 771 mmHg 44%
    10:00 +13°C° 0.1 mm 9 mps 771 mmHg 43%
    11:00 +15°C° 0.1 mm 9 mps 771 mmHg 42%
    12:00 +16°C° 0.1 mm 9 mps 770 mmHg 42%
    13:00 +17°C° 0.1 mm 9 mps 770 mmHg 41%
    14:00 +17°C° 0.1 mm 9 mps 769 mmHg 41%
    15:00 +17°C° 0.1 mm 9 mps 769 mmHg 42%
    16:00 +17°C° 0.1 mm 9 mps 768 mmHg 43%
    17:00 +16°C° 0.1 mm 8 mps 768 mmHg 43%
    18:00 +15°C° 0 mm 8 mps 768 mmHg 47%
    19:00 +13°C° 0 mm 8 mps 768 mmHg 51%
    20:00 +12°C° 0 mm 7 mps 768 mmHg 54%
    21:00 +12°C° 0 mm 7 mps 768 mmHg 56%
    22:00 +12°C° 0 mm 7 mps 768 mmHg 57%
    23:00 +12°C° 0 mm 7 mps 767 mmHg 58%

    28 Septiembre, Viernes

    Tiempo Temperatura Precipitaciones Viento Presión Humedad
    00:00 +12°C° 0 mm 7 mps 767 mmHg 58%
    01:00 +11°C° 0 mm 7 mps 767 mmHg 57%
    02:00 +11°C° 0 mm 7 mps 766 mmHg 56%
    03:00 +11°C° 0 mm 7 mps 766 mmHg 54%
    04:00 +11°C° 0 mm 7 mps 766 mmHg 52%
    05:00 +11°C° 0 mm 7 mps 766 mmHg 50%
    06:00 +12°C° 0 mm 7 mps 766 mmHg 47%
    07:00 +14°C° 0 mm 7 mps 765 mmHg 44%
    08:00 +15°C° 0 mm 7 mps 765 mmHg 41%
    09:00 +16°C° 0 mm 7 mps 765 mmHg 41%
    10:00 +18°C° 0 mm 7 mps 765 mmHg 42%
    11:00 +21°C° 0 mm 7 mps 765 mmHg 43%
    12:00 +21°C° 0 mm 7 mps 764 mmHg 43%
    13:00 +22°C° 0 mm 7 mps 764 mmHg 44%
    14:00 +22°C° 0 mm 6 mps 763 mmHg 44%
    15:00 +22°C° 0 mm 6 mps 763 mmHg 47%
    16:00 +21°C° 0 mm 6 mps 763 mmHg 50%
    17:00 +20°C° 0 mm 5 mps 762 mmHg 54%
    18:00 +19°C° 0 mm 5 mps 762 mmHg 59%
    19:00 +17°C° 0 mm 5 mps 762 mmHg 64%
    20:00 +16°C° 0 mm 5 mps 762 mmHg 69%
    21:00 +17°C° 0 mm 4 mps 762 mmHg 70%
    22:00 +17°C° 0 mm 4 mps 762 mmHg 72%
    23:00 +15°C° 0 mm 4 mps 762 mmHg 73%

    29 Septiembre, Sábado

    Tiempo Temperatura Precipitaciones Viento Presión Humedad
    00:00 +15°C° 0 mm 4 mps 762 mmHg 74%
    01:00 +15°C° 0 mm 4 mps 761 mmHg 75%
    02:00 +15°C° 0 mm 4 mps 761 mmHg 77%
    03:00 +15°C° 0 mm 4 mps 761 mmHg 77%
    04:00 +14°C° 0 mm 4 mps 761 mmHg 78%
    05:00 +14°C° 0 mm 4 mps 761 mmHg 79%
    06:00 +15°C° 0 mm 4 mps 761 mmHg 74%
    07:00 +17°C° 0 mm 4 mps 761 mmHg 68%
    08:00 +18°C° 0 mm 4 mps 761 mmHg 63%
    09:00 +19°C° 0.1 mm 4 mps 761 mmHg 58%
    10:00 +20°C° 0.1 mm 4 mps 761 mmHg 54%
    11:00 +22°C° 0.1 mm 4 mps 761 mmHg 50%
    12:00 +22°C° 0.1 mm 4 mps 760 mmHg 49%
    13:00 +22°C° 0.1 mm 3 mps 760 mmHg 48%
    14:00 +24°C° 0.1 mm 3 mps 760 mmHg 47%
    15:00 +22°C° 0.2 mm 3 mps 760 mmHg 52%
    16:00 +21°C° 0.2 mm 3 mps 760 mmHg 58%
    17:00 +20°C° 0.2 mm 3 mps 760 mmHg 63%
    18:00 +20°C° 0.1 mm 3 mps 760 mmHg 66%
    19:00 +19°C° 0.1 mm 3 mps 760 mmHg 70%
    20:00 +19°C° 0.1 mm 2 mps 761 mmHg 73%
    21:00 +18°C° 0.1 mm 2 mps 761 mmHg 74%
    22:00 +18°C° 0.1 mm 2 mps 761 mmHg 74%
    23:00 +18°C° 0.1 mm 2 mps 761 mmHg 75%

    30 Septiembre, Domingo

    Tiempo Temperatura Precipitaciones Viento Presión Humedad
    00:00 +18°C° 0.1 mm 2 mps 761 mmHg 73%
    01:00 +18°C° 0.1 mm 3 mps 761 mmHg 70%
    02:00 +18°C° 0.1 mm 4 mps 761 mmHg 68%
    03:00 +16°C° 0.1 mm 5 mps 762 mmHg 74%
    04:00 +15°C° 0.1 mm 6 mps 762 mmHg 81%
    05:00 +14°C° 0.1 mm 6 mps 762 mmHg 88%
    06:00 +15°C° 0.2 mm 6 mps 762 mmHg 86%
    07:00 +15°C° 0.2 mm 7 mps 762 mmHg 84%
    08:00 +15°C° 0.2 mm 7 mps 763 mmHg 82%
    09:00 +17°C° 0.2 mm 6 mps 763 mmHg 74%
    10:00 +20°C° 0.2 mm 6 mps 763 mmHg 66%
    11:00 +22°C° 0.2 mm 6 mps 763 mmHg 58%
    12:00 +22°C° 0.1 mm 6 mps 763 mmHg 54%
    13:00 +23°C° 0.1 mm 5 mps 763 mmHg 51%
    14:00 +25°C° 0.1 mm 5 mps 762 mmHg 47%
    15:00 +23°C° 0 mm 4 mps 762 mmHg 49%
    16:00 +23°C° 0 mm 4 mps 762 mmHg 51%
    17:00 +23°C° 0 mm 4 mps 762 mmHg 54%
    18:00 +21°C° 0 mm 3 mps 762 mmHg 60%
    19:00 +20°C° 0 mm 3 mps 762 mmHg 67%
    20:00 +19°C° 0 mm 3 mps 763 mmHg 73%
    21:00 +18°C° 0 mm 2 mps 763 mmHg 76%
    22:00 +18°C° 0 mm 2 mps 762 mmHg 78%
    23:00 +19°C° 0 mm 1 mps 762 mmHg 81%
    Mostrar más